FW6434 Weather Reports


time (UTC)temp
C
wind
direction
speed
KPH
gust
KPH
rain 1hr
cm
rain 24hr
cm
rain mn
cm
humidity
%
barometer
mb
20260505032255 11 166 0.0 1.6 0.00 0.00 0.00 69 1010.5
20260505032245 11 165 0.0 1.6 0.00 0.00 0.00 69 1010.5
20260505032230 11 166 0.0 1.6 0.00 0.00 0.00 66 1010.5
20260505031910 11 162 0.0 1.6 0.00 0.00 0.00 67 1010.4
20260505031811 11 167 0.0 1.6 0.00 0.00 0.00 65 1010.6
20260505031730 11 167 0.0 1.6 0.00 0.00 0.00 65 1010.5
20260505031704 11 167 0.0 1.6 0.00 0.00 0.00 65 1010.5
20260505031559 11 169 0.0 1.6 0.00 0.00 0.00 67 1010.6
20260505031458 11 167 0.0 1.6 0.00 0.00 0.00 65 1010.5
20260505031358 11 170 0.0 1.6 0.00 0.00 0.00 67 1010.4
20260505031259 12 169 0.0 1.6 0.00 0.00 0.00 65 1010.6
20260505031230 12 172 0.0 1.6 0.00 0.00 0.00 66 1010.6
20260505031158 12 174 0.0 1.6 0.00 0.00 0.00 68 1010.6
20260505031058 12 174 0.0 1.6 0.00 0.00 0.00 64 1010.5
20260505030959 12 174 0.0 1.6 0.00 0.00 0.00 66 1010.6
20260505030858 11 173 0.0 1.6 0.00 0.00 0.00 65 1010.7
20260505030822 12 170 0.0 1.6 0.00 0.00 0.00 67 1010.5
20260505030815 11 167 0.0 1.6 0.00 0.00 0.00 65 1010.7
20260505030801 11 155 0.0 1.6 0.00 0.00 0.00 66 1010.4
20260505030751 11 169 0.0 1.6 0.00 0.00 0.00 69 1010.4
20260505030735 11 141 1.6 1.6 0.00 0.00 0.00 65 1010.6
20260505030719 12 174 0.0 1.6 0.00 0.00 0.00 68 1010.7
20260505030702 12 171 0.0 1.6 0.00 0.00 0.00 66 1010.8
20260505030152 12 169 0.0 1.6 0.00 0.00 0.00 65 1010.5
20260505030053 12 166 0.0 1.6 0.00 0.00 0.00 62 1010.7
20260505030016 13 174 0.0 1.6 0.00 0.00 0.00 61 1010.6
20260505030009 12 168 0.0 1.6 0.00 0.00 0.00 63 1010.6
20260505025953 12 158 0.0 1.6 0.00 0.00 0.00 60 1010.7
20260505025937 13 174 0.0 1.6 0.00 0.00 0.00 61 1010.7
20260505025647 13 174 0.0 1.6 0.00 0.00 0.00 61 1010.6
20260505025548 13 175 0.0 1.6 0.00 0.00 0.00 59 1010.7
20260505025447 13 174 0.0 1.6 0.00 0.00 0.00 58 1010.8
20260505025347 13 174 0.0 1.6 0.00 0.00 0.00 58 1010.7
20260505025310 13 174 0.0 1.6 0.00 0.00 0.00 58 1010.9
20260505025258 13 174 0.0 1.6 0.00 0.00 0.00 57 1010.7
20260505025246 13 174 0.0 1.6 0.00 0.00 0.00 58 1010.7
20260505025229 13 169 0.0 1.6 0.00 0.00 0.00 57 1010.7
20260505025214 13 170 0.0 1.6 0.00 0.00 0.00 57 1010.6
20260505025158 13 171 0.0 1.6 0.00 0.00 0.00 57 1010.7
20260505025143 13 176 0.0 0.0 0.00 0.00 0.00 58 1010.9
20260505025130 13 176 0.0 0.0 0.00 0.00 0.00 58 1010.8
20260505024900 13 175 0.0 0.0 0.00 0.00 0.00 57 1010.9
20260505024623 13 169 0.0 1.6 0.00 0.00 0.00 57 1010.8
20260505024350 13 171 0.0 1.6 0.00 0.00 0.00 57 1010.8
20260505024033 13 173 0.0 1.6 0.00 0.00 0.00 57 1010.9
20260505024003 13 171 0.0 1.6 0.00 0.00 0.00 57 1010.8
20260505023948 13 172 0.0 1.6 0.00 0.00 0.00 58 1010.9
20260505023712 13 170 0.0 1.6 0.00 0.00 0.00 57 1010.8
20260505023628 13 167 0.0 1.6 0.00 0.00 0.00 58 1010.9
20260505023527 13 165 0.0 1.6 0.00 0.00 0.00 57 1010.9
20260505023423 13 173 0.0 0.0 0.00 0.00 0.00 60 1011.1
20260505023322 13 172 0.0 0.0 0.00 0.00 0.00 57 1010.8
20260505023216 13 172 0.0 0.0 0.00 0.00 0.00 56 1010.8
20260505023201 13 172 0.0 0.0 0.00 0.00 0.00 56 1010.8
20260505023115 13 176 0.0 1.6 0.00 0.00 0.00 57 1010.9
20260505023016 13 176 0.0 1.6 0.00 0.00 0.00 57 1011.0
20260505022916 13 175 0.0 1.6 0.00 0.00 0.00 56 1011.0
20260505022818 13 176 0.0 1.6 0.00 0.00 0.00 57 1011.0
20260505022716 13 175 0.0 1.6 0.00 0.00 0.00 57 1011.0
20260505022700 13 175 0.0 1.6 0.00 0.00 0.00 57 1011.0
20260505022615 13 176 0.0 1.6 0.00 0.00 0.00 59 1010.9
20260505022538 13 176 0.0 1.6 0.00 0.00 0.00 56 1010.9
20260505022522 13 175 0.0 1.6 0.00 0.00 0.00 57 1010.8
20260505022234 13 162 0.0 1.6 0.00 0.00 0.00 56 1010.7
20260505022215 13 178 0.0 0.0 0.00 0.00 0.00 56 1010.9
20260505022159 14 178 0.0 0.0 0.00 0.00 0.00 56 1011.0
20260505022144 14 177 0.0 0.0 0.00 0.00 0.00 56 1011.1
20260505021658 14 177 0.0 0.0 0.00 0.00 0.00 55 1010.9
20260505021558 14 177 0.0 0.0 0.00 0.00 0.00 55 1011.0
20260505021458 14 176 0.0 0.0 0.00 0.00 0.00 55 1010.9
20260505021343 14 178 0.0 0.0 0.00 0.00 0.00 55 1010.9
20260505021240 14 176 0.0 0.0 0.00 0.00 0.00 55 1010.8
20260505021142 13 175 0.0 0.0 0.00 0.00 0.00 55 1010.9
20260505021116 13 178 0.0 0.0 0.00 0.00 0.00 55 1010.9
20260505021101 13 179 0.0 0.0 0.00 0.00 0.00 56 1010.9
20260505020740 14 180 0.0 0.0 0.00 0.00 0.00 56 1010.9
20260505020648 14 181 0.0 0.0 0.00 0.00 0.00 57 1011.1
20260505020641 14 181 0.0 0.0 0.00 0.00 0.00 55 1011.1
20260505020540 14 181 0.0 0.0 0.00 0.00 0.00 55 1011.2
20260505020511 14 181 0.0 0.0 0.00 0.00 0.00 57 1010.9
20260505020455 13 181 0.0 0.0 0.00 0.00 0.00 55 1010.9
20260505020143 13 181 0.0 1.6 0.00 0.00 0.00 55 1011.1
20260505020135 13 180 0.0 1.6 0.00 0.00 0.00 55 1011.1
20260505020035 13 179 0.0 1.6 0.00 0.00 0.00 56 1011.1
20260505015935 13 179 0.0 1.6 0.00 0.00 0.00 56 1011.0
20260505015836 13 180 0.0 1.6 0.00 0.00 0.00 61 1010.9
20260505015817 13 178 0.0 1.6 0.00 0.00 0.00 57 1011.3
20260505015759 13 182 0.0 1.6 0.00 0.00 0.00 59 1011.3
20260505015754 13 181 0.0 1.6 0.00 0.00 0.00 59 1011.2
20260505015429 13 180 0.0 1.6 0.00 0.00 0.00 57 1011.2
20260505015327 13 175 0.0 1.6 0.00 0.00 0.00 57 1011.3
20260505015229 14 185 0.0 0.0 0.00 0.00 0.00 60 1011.2
20260505015212 14 182 0.0 0.0 0.00 0.00 0.00 57 1011.2
20260505015202 14 182 0.0 0.0 0.00 0.00 0.00 61 1010.9
20260505015147 14 188 0.0 0.0 0.00 0.00 0.00 56 1011.2
20260505014906 14 173 0.0 0.0 0.00 0.00 0.00 58 1011.3
20260505014850 14 173 0.0 0.0 0.00 0.00 0.00 55 1011.1
20260505014834 14 173 0.0 0.0 0.00 0.00 0.00 54 1011.1
20260505014523 14 173 0.0 0.0 0.00 0.00 0.00 54 1011.1
20260505014459 14 173 0.0 0.0 0.00 0.00 0.00 54 1011.4
20260505014444 14 173 0.0 0.0 0.00 0.00 0.00 57 1011.1
20260505014206 14 171 0.0 0.0 0.00 0.00 0.00 54 1011.5
20260505014158 14 171 0.0 0.0 0.00 0.00 0.00 54 1011.4
20260505014142 14 174 0.0 0.0 0.00 0.00 0.00 54 1011.1
20260505013821 14 174 0.0 0.0 0.00 0.00 0.00 54 1011.1
20260505013720 14 173 0.0 0.0 0.00 0.00 0.00 54 1011.3
20260505013629 14 173 0.0 0.0 0.00 0.00 0.00 55 1011.1
20260505013621 14 173 0.0 0.0 0.00 0.00 0.00 54 1011.1
20260505013516 14 173 0.0 0.0 0.00 0.00 0.00 54 1011.3
20260505013423 14 173 0.0 0.0 0.00 0.00 0.00 54 1011.1
20260505013417 14 173 0.0 0.0 0.00 0.00 0.00 54 1011.3
20260505013402 14 173 0.0 0.0 0.00 0.00 0.00 54 1011.1
20260505013346 14 173 0.0 0.0 0.00 0.00 0.00 54 1011.1
20260505013118 14 173 0.0 0.0 0.00 0.00 0.00 54 1011.1
20260505013017 14 173 0.0 0.0 0.00 0.00 0.00 54 1011.2
20260505012915 14 172 0.0 0.0 0.00 0.00 0.00 54 1011.3
20260505012816 14 172 0.0 0.0 0.00 0.00 0.00 54 1011.2
20260505012657 14 172 0.0 0.0 0.00 0.00 0.00 54 1011.3
20260505012614 14 171 0.0 0.0 0.00 0.00 0.00 54 1011.2
20260505012546 14 172 0.0 0.0 0.00 0.00 0.00 54 1011.2
20260505012446 14 171 0.0 0.0 0.00 0.00 0.00 54 1011.2
20260505012346 15 171 0.0 0.0 0.00 0.00 0.00 54 1011.1
20260505012312 15 173 0.0 0.0 0.00 0.00 0.00 54 1011.1
20260505012243 15 171 0.0 0.0 0.00 0.00 0.00 54 1011.3
20260505011927 15 171 0.0 0.0 0.00 0.00 0.00 54 1011.2
20260505011829 15 174 0.0 0.0 0.00 0.00 0.00 54 1011.3
20260505011716 15 174 0.0 0.0 0.00 0.00 0.00 54 1011.1
20260505011616 15 178 0.0 0.0 0.00 0.00 0.00 54 1011.2
20260505011601 15 178 0.0 0.0 0.00 0.00 0.00 54 1011.2
20260505011532 15 172 0.0 0.0 0.00 0.00 0.00 54 1011.2
20260505011525 15 178 0.0 0.0 0.00 0.00 0.00 54 1011.2
20260505011509 15 174 0.0 0.0 0.00 0.00 0.00 54 1011.2
20260505011452 15 174 0.0 0.0 0.00 0.00 0.00 54 1011.2
20260505011437 15 174 0.0 0.0 0.00 0.00 0.00 54 1011.2
20260505011421 15 172 0.0 0.0 0.00 0.00 0.00 54 1011.2
20260505011153 15 176 0.0 0.0 0.00 0.00 0.00 54 1011.2
20260505010923 15 179 0.0 0.0 0.00 0.00 0.00 54 1011.2
20260505010604 15 178 0.0 0.0 0.00 0.00 0.00 53 1011.1
20260505010505 15 176 0.0 0.0 0.00 0.00 0.00 54 1011.3
20260505010403 15 175 0.0 0.0 0.00 0.00 0.00 54 1011.1
20260505010303 15 178 0.0 0.0 0.00 0.00 0.00 54 1011.3
20260505010159 15 176 0.0 0.0 0.00 0.00 0.00 54 1011.4
20260505010113 15 176 0.0 0.0 0.00 0.00 0.00 54 1011.4
20260505005959 15 176 0.0 0.0 0.00 0.00 0.00 54 1011.3
20260505005859 15 174 0.0 0.0 0.00 0.00 0.00 54 1011.3
20260505005758 15 172 0.0 0.0 0.00 0.00 0.00 54 1011.1
20260505005700 15 172 0.0 0.0 0.00 0.00 0.00 54 1011.3
20260505005641 15 172 0.0 0.0 0.00 0.00 0.00 54 1011.3
20260505005625 15 171 0.0 0.0 0.00 0.00 0.00 54 1011.2
20260505005610 15 170 0.0 0.0 0.00 0.00 0.00 54 1011.2
20260505005553 15 171 0.0 0.0 0.00 0.00 0.00 54 1011.3
20260505005539 15 173 0.0 0.0 0.00 0.00 0.00 54 1011.2
20260505005523 15 173 0.0 0.0 0.00 0.00 0.00 54 1011.3
20260505004734 15 172 0.0 0.0 0.00 0.00 0.00 54 1011.4
20260505004635 15 172 0.0 0.0 0.00 0.00 0.00 54 1011.4
20260505004534 15 172 0.0 0.0 0.00 0.00 0.00 54 1011.4
20260505004434 15 172 0.0 0.0 0.00 0.00 0.00 54 1011.3
20260505004333 15 171 0.0 0.0 0.00 0.00 0.00 54 1011.5
20260505004256 15 174 0.0 1.6 0.00 0.00 0.00 53 1011.2
20260505004243 15 173 0.0 0.0 0.00 0.00 0.00 54 1011.4
20260505004228 15 174 0.0 0.0 0.00 0.00 0.00 54 1011.5
20260505004212 15 174 0.0 0.0 0.00 0.00 0.00 54 1011.5
20260505003936 15 174 0.0 0.0 0.00 0.00 0.00 53 1011.6
20260505003914 15 174 0.0 0.0 0.00 0.00 0.00 53 1011.3
20260505003648 15 175 0.0 0.0 0.00 0.00 0.00 53 1011.5
20260505003631 15 174 0.0 0.0 0.00 0.00 0.00 53 1011.4
20260505003615 15 174 0.0 0.0 0.00 0.00 0.00 53 1011.5
20260505003558 15 174 0.0 1.6 0.00 0.00 0.00 53 1011.3
20260505003331 15 174 0.0 1.6 0.00 0.00 0.00 53 1011.2
20260505003011 15 174 0.0 1.6 0.00 0.00 0.00 53 1011.5
20260505002911 15 175 0.0 1.6 0.00 0.00 0.00 53 1011.4
20260505002810 15 174 0.0 1.6 0.00 0.00 0.00 53 1011.3
20260505002719 15 176 0.0 1.6 0.00 0.00 0.00 53 1011.4
20260505002710 15 177 0.0 1.6 0.00 0.00 0.00 53 1011.4
20260505002610 15 173 0.0 1.6 0.00 0.00 0.00 53 1011.2
20260505002510 15 176 0.0 1.6 0.00 0.00 0.00 53 1011.5
20260505002413 15 170 0.0 1.6 0.00 0.00 0.00 53 1011.5
20260505002354 15 170 0.0 1.6 0.00 0.00 0.00 53 1011.5
20260505002331 15 166 0.0 1.6 0.00 0.00 0.00 53 1011.3
20260505002011 15 169 0.0 1.6 0.00 0.00 0.00 53 1011.4
20260505001910 15 164 0.0 1.6 0.00 0.00 0.00 53 1011.2
20260505001807 15 167 0.0 1.6 0.00 0.00 0.00 53 1011.7
20260505001715 15 163 0.0 1.6 0.00 0.00 0.00 53 1011.5
20260505001705 15 169 0.0 1.6 0.00 0.00 0.00 53 1011.5
20260505001606 15 168 0.0 1.6 0.00 0.00 0.00 53 1011.6
20260505001527 15 169 0.0 1.6 0.00 0.00 0.00 53 1011.6
20260505001519 15 165 0.0 0.0 0.00 0.00 0.00 53 1011.5
20260505001503 15 169 0.0 0.0 0.00 0.00 0.00 53 1011.6
20260505001445 15 168 0.0 0.0 0.00 0.00 0.00 53 1011.6
20260505001431 15 161 0.0 0.0 0.00 0.00 0.00 53 1011.6
20260505001421 15 164 0.0 0.0 0.00 0.00 0.00 53 1011.6
20260505001406 15 162 0.0 1.6 0.00 0.00 0.00 53 1011.6
20260505001350 15 169 0.0 1.6 0.00 0.00 0.00 53 1011.6
20260505001335 15 172 0.0 1.6 0.00 0.00 0.00 53 1011.7
20260505001318 15 170 0.0 1.6 0.00 0.00 0.00 53 1011.7
20260505001304 15 169 0.0 1.6 0.00 0.00 0.00 53 1011.6
20260505001255 15 165 0.0 1.6 0.00 0.00 0.00 53 1011.6
20260505000758 15 167 0.0 1.6 0.00 0.00 0.00 53 1011.6
20260505000308 15 167 0.0 1.6 0.00 0.00 0.00 52 1011.8
20260505000032 15 174 0.0 0.0 0.00 0.00 0.00 53 1011.7
20260505000013 15 175 0.0 0.0 0.00 0.00 0.00 53 1011.7
20260504235950 15 175 0.0 0.0 0.00 0.00 0.00 53 1011.6
20260504235436 15 175 0.0 0.0 0.00 0.00 0.00 53 1011.6
20260504235158 15 174 0.0 0.0 0.00 0.00 0.00 53 1011.7
20260504235054 15 170 0.0 1.6 0.00 0.00 0.00 52 1012.1
20260504235050 16 192 0.0 0.0 0.00 0.00 0.00 52 1011.8
20260504235042 15 168 0.0 0.0 0.00 0.00 0.00 52 1011.8
20260504234808 15 168 0.0 1.6 0.00 0.00 0.00 52 1011.8
20260504234753 15 179 0.0 1.6 0.00 0.00 0.00 52 1011.9
20260504234525 15 170 0.0 1.6 0.00 0.00 0.00 52 1012.1
20260504234506 15 167 0.0 1.6 0.00 0.00 0.00 52 1012.0
20260504234449 15 167 0.0 1.6 0.00 0.00 0.00 52 1011.9
20260504234433 15 174 0.0 1.6 0.00 0.00 0.00 52 1011.8
20260504234418 15 168 0.0 1.6 0.00 0.00 0.00 51 1012.0
20260504234354 15 169 0.0 1.6 0.00 0.00 0.00 51 1011.7
20260504234339 15 168 0.0 1.6 0.00 0.00 0.00 51 1011.9
20260504233625 15 187 0.0 0.0 0.00 0.00 0.00 50 1011.9
20260504233354 15 185 0.0 0.0 0.00 0.00 0.00 53 1011.9
20260504233338 15 192 0.0 0.0 0.00 0.00 0.00 50 1011.8
20260504233323 16 192 0.0 0.0 0.00 0.00 0.00 52 1012.2
20260504233306 16 192 0.0 0.0 0.00 0.00 0.00 50 1011.8
20260504232734 16 192 0.0 1.6 0.00 0.00 0.00 50 1011.9
20260504232634 16 192 0.0 1.6 0.00 0.00 0.00 50 1011.7
20260504232533 16 196 0.0 1.6 0.00 0.00 0.00 50 1011.9
20260504232439 16 198 0.0 1.6 0.00 0.00 0.00 50 1012.0
20260504232425 16 201 0.0 1.6 0.00 0.00 0.00 50 1012.0
20260504232417 16 225 0.0 1.6 0.00 0.00 0.00 50 1011.9
20260504232358 16 225 0.0 1.6 0.00 0.00 0.00 50 1011.8
20260504232122 16 196 0.0 1.6 0.00 0.00 0.00 49 1012.0
20260504232107 16 201 0.0 1.6 0.00 0.00 0.00 49 1011.8
20260504232052 16 212 1.6 1.6 0.00 0.00 0.00 49 1011.8
20260504231736 16 198 0.0 1.6 0.00 0.00 0.00 49 1012.0
20260504231633 16 198 0.0 1.6 0.00 0.00 0.00 49 1011.8
20260504231534 16 203 0.0 1.6 0.00 0.00 0.00 48 1011.8
20260504231434 16 209 1.6 1.6 0.00 0.00 0.00 48 1011.9
20260504231329 16 202 0.0 4.8 0.00 0.00 0.00 48 1011.9
20260504231231 16 199 0.0 4.8 0.00 0.00 0.00 48 1011.9
20260504231129 16 205 1.6 4.8 0.00 0.00 0.00 48 1011.9
20260504231113 16 198 0.0 4.8 0.00 0.00 0.00 49 1012.2
20260504231056 16 200 0.0 4.8 0.00 0.00 0.00 48 1011.9
20260504231042 16 202 0.0 4.8 0.00 0.00 0.00 48 1011.9
20260504230730 16 206 0.0 4.8 0.00 0.00 0.00 48 1012.1
20260504230628 16 212 1.6 4.8 0.00 0.00 0.00 48 1012.0
20260504230608 16 201 0.0 4.8 0.00 0.00 0.00 48 1012.0
20260504230552 16 222 3.2 6.4 0.00 0.00 0.00 47 1012.1
20260504230538 16 205 0.0 6.4 0.00 0.00 0.00 47 1012.1
20260504230224 16 206 0.0 6.4 0.00 0.00 0.00 47 1011.9
20260504230125 17 203 0.0 6.4 0.00 0.00 0.00 48 1012.0
20260504230024 17 208 0.0 6.4 0.00 0.00 0.00 47 1012.3
20260504230007 17 205 1.6 6.4 0.00 0.00 0.00 47 1012.0
20260504225952 17 198 0.0 6.4 0.00 0.00 0.00 47 1012.0
20260504225944 17 207 0.0 6.4 0.00 0.00 0.00 47 1012.0
20260504225624 17 199 0.0 6.4 0.00 0.00 0.00 47 1012.1
20260504225525 17 206 1.6 6.4 0.00 0.00 0.00 46 1012.2
20260504225508 17 208 1.6 4.8 0.00 0.00 0.00 46 1012.1
20260504225454 17 205 0.0 4.8 0.00 0.00 0.00 47 1012.1
20260504225445 17 206 1.6 4.8 0.00 0.00 0.00 46 1012.0
20260504225125 17 210 0.0 4.8 0.00 0.00 0.00 46 1012.2
20260504225024 17 205 0.0 4.8 0.00 0.00 0.00 47 1012.2
20260504224925 17 213 1.6 4.8 0.00 0.00 0.00 46 1012.2
20260504224911 17 208 0.0 4.8 0.00 0.00 0.00 46 1012.2
20260504224903 17 206 0.0 4.8 0.00 0.00 0.00 47 1012.3
20260504224846 17 201 0.0 4.8 0.00 0.00 0.00 47 1012.5
20260504224525 17 198 0.0 4.8 0.00 0.00 0.00 47 1012.1
20260504224424 17 207 3.2 4.8 0.00 0.00 0.00 46 1012.2
20260504224344 17 207 0.0 3.2 0.00 0.00 0.00 47 1012.2
20260504224325 17 206 0.0 3.2 0.00 0.00 0.00 47 1012.1
20260504224223 17 207 0.0 3.2 0.00 0.00 0.00 47 1012.3
20260504224212 17 218 1.6 6.4 0.00 0.00 0.00 45 1012.2
20260504224203 17 201 0.0 3.2 0.00 0.00 0.00 47 1012.2
20260504224147 17 204 0.0 4.8 0.00 0.00 0.00 47 1012.4
20260504224132 17 202 0.0 4.8 0.00 0.00 0.00 46 1012.2
20260504224117 17 198 0.0 4.8 0.00 0.00 0.00 46 1012.2
20260504224110 17 202 1.6 4.8 0.00 0.00 0.00 46 1012.0
20260504224055 17 165 0.0 4.8 0.00 0.00 0.00 46 1012.4
20260504224040 17 214 0.0 4.8 0.00 0.00 0.00 46 1012.5
20260504224023 17 205 0.0 4.8 0.00 0.00 0.00 47 1012.1
20260504223750 17 201 0.0 4.8 0.00 0.00 0.00 46 1012.3
20260504223741 17 202 0.0 4.8 0.00 0.00 0.00 46 1012.3
20260504223242 17 204 0.0 6.4 0.00 0.00 0.00 46 1012.3
20260504223225 17 229 4.8 6.4 0.00 0.00 0.00 45 1012.3
20260504222653 17 225 1.6 6.4 0.00 0.00 0.00 45 1012.5
20260504222555 17 203 0.0 9.7 0.00 0.00 0.00 46 1012.4
20260504222454 17 216 1.6 9.7 0.00 0.00 0.00 45 1012.2
20260504222340 17 203 0.0 9.7 0.00 0.00 0.00 45 1012.5
20260504222325 17 212 1.6 9.7 0.00 0.00 0.00 45 1012.3
20260504222234 17 211 1.6 9.7 0.00 0.00 0.00 46 1012.2
20260504222124 17 222 4.8 9.7 0.00 0.00 0.00 46 1012.4
20260504222025 17 224 1.6 9.7 0.00 0.00 0.00 46 1012.2
20260504221924 17 216 1.6 9.7 0.00 0.00 0.00 46 1012.4
20260504221825 17 220 1.6 9.7 0.00 0.00 0.00 46 1012.5
20260504221724 17 243 3.2 9.7 0.00 0.00 0.00 46 1012.5
20260504221624 17 239 6.4 9.7 0.00 0.00 0.00 46 1012.3
20260504221523 17 223 1.6 9.7 0.00 0.00 0.00 46 1012.3
20260504221418 17 217 1.6 9.7 0.00 0.00 0.00 47 1012.2
20260504221318 17 233 4.8 9.7 0.00 0.00 0.00 47 1012.6
20260504221217 17 229 3.2 9.7 0.00 0.00 0.00 47 1012.3
20260504221127 17 230 6.4 9.7 0.00 0.00 0.00 47 1012.3
20260504221112 17 211 0.0 9.7 0.00 0.00 0.00 47 1012.2
20260504221056 17 209 1.6 9.7 0.00 0.00 0.00 47 1012.3
20260504220830 17 229 4.8 9.7 0.00 0.00 0.00 47 1012.3
20260504220718 17 227 3.2 6.4 0.00 0.00 0.00 48 1012.2
20260504220617 17 213 3.2 6.4 0.00 0.00 0.00 48 1012.4
20260504220512 17 225 6.4 6.4 0.00 0.00 0.00 48 1012.3
20260504220412 17 213 3.2 6.4 0.00 0.00 0.00 48 1012.5
20260504220312 17 211 0.0 6.4 0.00 0.00 0.00 48 1012.4
20260504220212 17 205 0.0 6.4 0.00 0.00 0.00 48 1012.3
20260504220112 17 222 1.6 6.4 0.00 0.00 0.00 48 1012.5
20260504220013 17 214 1.6 6.4 0.00 0.00 0.00 48 1012.5
20260504215912 17 210 1.6 6.4 0.00 0.00 0.00 48 1012.4
20260504215812 17 204 1.6 6.4 0.00 0.00 0.00 48 1012.2
20260504215748 17 235 4.8 4.8 0.00 0.00 0.00 47 1012.4
20260504215731 17 224 4.8 4.8 0.00 0.00 0.00 47 1012.4
20260504215410 17 210 3.2 4.8 0.00 0.00 0.00 47 1012.4
20260504215311 17 209 1.6 3.2 0.00 0.00 0.00 48 1012.4
20260504215210 17 211 1.6 3.2 0.00 0.00 0.00 48 1012.3
20260504215136 17 201 0.0 1.6 0.00 0.00 0.00 47 1012.5
20260504215130 17 214 1.6 3.2 0.00 0.00 0.00 48 1012.3
20260504215114 17 194 0.0 1.6 0.00 0.00 0.00 48 1012.3
20260504215059 17 195 0.0 1.6 0.00 0.00 0.00 48 1012.2
20260504214832 17 196 0.0 1.6 0.00 0.00 0.00 48 1012.4
20260504214818 17 196 0.0 1.6 0.00 0.00 0.00 47 1012.3
20260504214802 17 196 0.0 1.6 0.00 0.00 0.00 47 1012.3
20260504214746 17 198 0.0 1.6 0.00 0.00 0.00 47 1012.5
20260504214731 17 191 0.0 1.6 0.00 0.00 0.00 46 1012.4
20260504214231 17 203 0.0 1.6 0.00 0.00 0.00 47 1012.6
20260504214214 17 202 0.0 1.6 0.00 0.00 0.00 47 1012.2
20260504213854 17 215 0.0 1.6 0.00 0.00 0.00 46 1012.4
20260504213754 17 199 0.0 1.6 0.00 0.00 0.00 47 1012.4
20260504213654 17 201 0.0 3.2 0.00 0.00 0.00 47 1012.4
20260504213628 17 204 0.0 6.4 0.00 0.00 0.00 47 1012.4
20260504213612 17 201 0.0 6.4 0.00 0.00 0.00 47 1012.5
20260504213252 17 201 0.0 6.4 0.00 0.00 0.00 47 1012.3
20260504213225 17 202 0.0 6.4 0.00 0.00 0.00 47 1012.5
20260504213208 17 207 0.0 6.4 0.00 0.00 0.00 47 1012.3
20260504212848 17 208 1.6 6.4 0.00 0.00 0.00 46 1012.5
20260504212747 17 202 1.6 6.4 0.00 0.00 0.00 46 1012.6
20260504212647 17 213 4.8 6.4 0.00 0.00 0.00 46 1012.4
20260504212548 17 220 1.6 4.8 0.00 0.00 0.00 47 1012.3
20260504212448 17 215 3.2 4.8 0.00 0.00 0.00 47 1012.2
20260504212347 17 199 0.0 4.8 0.00 0.00 0.00 47 1012.4
20260504212307 17 210 1.6 6.4 0.00 0.00 0.00 47 1012.4
20260504212224 17 204 0.0 6.4 0.00 0.00 0.00 48 1012.3
20260504212208 17 217 3.2 6.4 0.00 0.00 0.00 48 1012.4
20260504211858 17 219 3.2 4.8 0.00 0.00 0.00 48 1012.5
20260504211853 17 204 0.0 6.4 0.00 0.00 0.00 48 1012.5
20260504211831 17 211 0.0 6.4 0.00 0.00 0.00 48 1012.4
20260504211814 17 205 0.0 6.4 0.00 0.00 0.00 48 1012.3
20260504211538 17 203 0.0 6.4 0.00 0.00 0.00 48 1012.3
20260504211522 17 210 3.2 6.4 0.00 0.00 0.00 48 1012.4
20260504211504 17 219 3.2 4.8 0.00 0.00 0.00 48 1012.5
20260504211141 17 205 0.0 4.8 0.00 0.00 0.00 48 1012.3
20260504211046 17 194 0.0 6.4 0.00 0.00 0.00 49 1012.3
20260504210943 17 226 0.0 6.4 0.00 0.00 0.00 49 1012.5
20260504210842 17 209 1.6 6.4 0.00 0.00 0.00 48 1012.2
20260504210741 17 209 0.0 6.4 0.00 0.00 0.00 48 1012.4
20260504210717 17 212 0.0 6.4 0.00 0.00 0.00 48 1012.3
20260504210702 17 214 1.6 6.4 0.00 0.00 0.00 48 1012.4
20260504210340 18 203 0.0 9.7 0.00 0.00 0.00 48 1012.5
20260504210314 18 196 0.0 9.7 0.00 0.00 0.00 48 1012.5
20260504210257 18 211 1.6 9.7 0.00 0.00 0.00 48 1012.4
20260504205938 18 210 0.0 9.7 0.00 0.00 0.00 48 1012.4
20260504205921 18 218 0.0 9.7 0.00 0.00 0.00 48 1012.6
20260504205859 18 228 1.6 9.7 0.00 0.00 0.00 47 1012.6
20260504205536 18 216 4.8 9.7 0.00 0.00 0.00 47 1012.4
20260504205437 18 198 0.0 6.4 0.00 0.00 0.00 48 1012.3
20260504205335 18 211 4.8 6.4 0.00 0.00 0.00 47 1012.4
20260504205236 18 218 1.6 4.8 0.00 0.00 0.00 48 1012.4
20260504205211 18 222 0.0 4.8 0.00 0.00 0.00 48 1012.4
20260504205155 18 210 0.0 4.8 0.00 0.00 0.00 48 1012.4
20260504204834 18 200 0.0 4.8 0.00 0.00 0.00 47 1012.5
20260504204734 18 203 0.0 4.8 0.00 0.00 0.00 47 1012.4
20260504204708 18 220 3.2 4.8 0.00 0.00 0.00 47 1012.5
20260504204651 18 223 1.6 4.8 0.00 0.00 0.00 47 1012.6
20260504204330 18 205 3.2 4.8 0.00 0.00 0.00 47 1012.5
20260504204240 18 215 4.8 4.8 0.00 0.00 0.00 47 1012.5
20260504204223 18 204 1.6 6.4 0.00 0.00 0.00 47 1012.4
20260504204207 18 225 3.2 6.4 0.00 0.00 0.00 46 1012.3
20260504204151 18 200 0.0 6.4 0.00 0.00 0.00 47 1012.5
20260504204136 18 221 3.2 9.7 0.00 0.00 0.00 46 1012.6
20260504204114 18 193 3.2 9.7 0.00 0.00 0.00 46 1012.4
20260504204058 18 220 1.6 9.7 0.00 0.00 0.00 47 1012.2
20260504204044 18 211 0.0 9.7 0.00 0.00 0.00 47 1012.4
20260504203807 18 229 0.0 9.7 0.00 0.00 0.00 47 1012.3
20260504203744 18 203 4.8 9.7 0.00 0.00 0.00 46 1012.5
20260504203244 18 228 6.4 9.7 0.00 0.00 0.00 47 1012.5
20260504203002 18 217 3.2 12.9 0.00 0.00 0.00 47 1012.4
20260504202944 18 207 1.6 12.9 0.00 0.00 0.00 47 1012.4
20260504202709 18 217 3.2 12.9 0.00 0.00 0.00 47 1012.3
20260504202217 18 210 1.6 12.9 0.00 0.00 0.00 47 1012.4
20260504202117 18 215 4.8 12.9 0.00 0.00 0.00 48 1012.4
20260504202047 18 219 4.8 12.9 0.00 0.00 0.00 48 1012.4
20260504202030 18 237 3.2 12.9 0.00 0.00 0.00 48 1012.4
20260504202014 18 210 3.2 12.9 0.00 0.00 0.00 48 1012.2
20260504201951 18 221 4.8 11.3 0.00 0.00 0.00 49 1012.3
20260504201412 18 205 1.6 6.4 0.00 0.00 0.00 49 1012.3
20260504201314 18 241 3.2 6.4 0.00 0.00 0.00 50 1012.4
20260504201213 18 206 1.6 6.4 0.00 0.00 0.00 49 1012.3
20260504201110 18 192 0.0 6.4 0.00 0.00 0.00 50 1012.3
20260504201010 18 207 3.2 6.4 0.00 0.00 0.00 50 1012.3
20260504200910 18 187 0.0 6.4 0.00 0.00 0.00 50 1012.3
20260504200810 18 215 1.6 6.4 0.00 0.00 0.00 50 1012.3
20260504200711 18 237 1.6 6.4 0.00 0.00 0.00 50 1012.3
20260504200610 18 191 0.0 6.4 0.00 0.00 0.00 50 1012.3
20260504200554 18 218 1.6 4.8 0.00 0.00 0.00 51 1012.3
20260504200546 18 223 4.8 6.4 0.00 0.00 0.00 50 1012.4
20260504200525 18 213 4.8 6.4 0.00 0.00 0.00 51 1012.4
20260504200510 18 221 0.0 4.8 0.00 0.00 0.00 51 1012.2
20260504200452 18 218 1.6 4.8 0.00 0.00 0.00 51 1012.3
20260504200225 18 215 0.0 4.8 0.00 0.00 0.00 51 1012.2
20260504195904 18 203 0.0 6.4 0.00 0.00 0.00 52 1012.3
20260504195759 18 221 1.6 6.4 0.00 0.00 0.00 52 1012.3
20260504195658 18 217 0.0 6.4 0.00 0.00 0.00 52 1012.3
20260504195653 18 200 0.0 6.4 0.00 0.00 0.00 52 1012.3
20260504195542 19 201 0.0 6.4 0.00 0.00 0.00 52 1012.2
20260504195443 19 204 0.0 6.4 0.00 0.00 0.00 52 1012.3
20260504195427 19 224 3.2 6.4 0.00 0.00 0.00 52 1012.2
20260504195411 19 204 1.6 6.4 0.00 0.00 0.00 51 1012.4
20260504195356 19 209 1.6 6.4 0.00 0.00 0.00 52 1012.6
20260504195042 19 225 1.6 6.4 0.00 0.00 0.00 51 1012.3
20260504194940 19 202 0.0 4.8 0.00 0.00 0.00 52 1012.3
20260504194840 19 222 3.2 4.8 0.00 0.00 0.00 52 1012.2
20260504194732 19 221 3.2 4.8 0.00 0.00 0.00 52 1012.1
20260504194650 19 212 1.6 4.8 0.00 0.00 0.00 52 1012.1
20260504194630 19 225 1.6 4.8 0.00 0.00 0.00 52 1012.3
20260504194530 19 224 4.8 4.8 0.00 0.00 0.00 52 1012.1
20260504194430 19 222 1.6 4.8 0.00 0.00 0.00 52 1012.3
20260504194328 19 216 3.2 4.8 0.00 0.00 0.00 52 1012.5
20260504194303 19 207 0.0 6.4 0.00 0.00 0.00 52 1012.6
20260504194248 19 215 3.2 6.4 0.00 0.00 0.00 51 1012.6
20260504194124 19 211 3.2 6.4 0.00 0.00 0.00 51 1012.3
20260504194022 19 208 0.0 6.4 0.00 0.00 0.00 51 1012.4
20260504193914 19 234 3.2 6.4 0.00 0.00 0.00 51 1012.1
20260504193806 19 220 3.2 6.4 0.00 0.00 0.00 51 1012.3
20260504193636 19 217 3.2 6.4 0.00 0.00 0.00 51 1012.3
20260504193552 19 215 3.2 6.4 0.00 0.00 0.00 51 1012.4
20260504193453 20 221 3.2 6.4 0.00 0.00 0.00 51 1012.2
20260504193348 20 227 3.2 6.4 0.00 0.00 0.00 51 1012.2
20260504193247 20 230 3.2 4.8 0.00 0.00 0.00 51 1012.1
20260504193146 20 228 4.8 4.8 0.00 0.00 0.00 51 1012.1
20260504193130 20 221 3.2 4.8 0.00 0.00 0.00 51 1012.3
20260504193047 19 209 1.6 4.8 0.00 0.00 0.00 51 1012.3
20260504192947 19 227 3.2 4.8 0.00 0.00 0.00 51 1012.2
20260504192847 19 220 1.6 4.8 0.00 0.00 0.00 51 1012.2
20260504192746 19 211 1.6 4.8 0.00 0.00 0.00 51 1012.4
20260504192648 19 224 0.0 4.8 0.00 0.00 0.00 51 1012.4
20260504192632 19 224 0.0 4.8 0.00 0.00 0.00 51 1012.1
20260504192622 20 199 0.0 4.8 0.00 0.00 0.00 51 1012.1
20260504192606 20 201 0.0 4.8 0.00 0.00 0.00 51 1012.2
20260504192308 20 200 0.0 4.8 0.00 0.00 0.00 51 1012.0
20260504192251 20 205 0.0 4.8 0.00 0.00 0.00 51 1012.0
20260504192240 20 211 0.0 4.8 0.00 0.00 0.00 51 1012.0
20260504192227 20 211 1.6 4.8 0.00 0.00 0.00 50 1012.2
20260504192212 20 208 0.0 4.8 0.00 0.00 0.00 50 1012.1
20260504191630 20 211 0.0 3.2 0.00 0.00 0.00 51 1012.0
20260504191531 20 211 1.6 3.2 0.00 0.00 0.00 51 1012.2
20260504191504 19 188 0.0 0.0 0.00 0.00 0.00 54 1012.4
20260504191459 19 186 0.0 1.6 0.00 0.00 0.00 54 1012.1
20260504191451 20 210 0.0 3.2 0.00 0.00 0.00 50 1012.1
20260504191435 20 210 0.0 3.2 0.00 0.00 0.00 50 1012.2
20260504191418 20 220 1.6 3.2 0.00 0.00 0.00 50 1012.2
20260504191151 20 204 0.0 3.2 0.00 0.00 0.00 51 1012.1
20260504191132 19 211 0.0 3.2 0.00 0.00 0.00 51 1012.0
20260504191116 19 213 1.6 3.2 0.00 0.00 0.00 51 1012.2
20260504190838 19 203 0.0 1.6 0.00 0.00 0.00 52 1012.4
20260504190815 19 198 0.0 1.6 0.00 0.00 0.00 52 1012.4
20260504190759 19 196 0.0 1.6 0.00 0.00 0.00 52 1012.3
20260504190743 19 198 0.0 1.6 0.00 0.00 0.00 52 1012.1
20260504190727 19 191 0.0 0.0 0.00 0.00 0.00 53 1012.2
20260504190711 19 188 0.0 0.0 0.00 0.00 0.00 54 1012.3
20260504190649 19 188 0.0 0.0 0.00 0.00 0.00 53 1012.1
20260504190412 19 188 0.0 0.0 0.00 0.00 0.00 54 1012.3
20260504190357 19 188 0.0 0.0 0.00 0.00 0.00 54 1012.1
20260504190341 19 188 0.0 0.0 0.00 0.00 0.00 54 1012.0
20260504190324 19 188 0.0 0.0 0.00 0.00 0.00 54 1012.4
20260504190046 19 188 0.0 1.6 0.00 0.00 0.00 54 1012.0
20260504185550 19 186 0.0 1.6 0.00 0.00 0.00 54 1012.0
20260504185533 19 186 0.0 1.6 0.00 0.00 0.00 54 1012.1
20260504185305 20 185 0.0 6.4 0.00 0.00 0.00 54 1012.1
20260504184724 20 190 0.0 6.4 0.00 0.00 0.00 53 1012.0
20260504184657 20 190 0.0 6.4 0.00 0.00 0.00 52 1012.2
20260504184643 20 191 0.0 6.4 0.00 0.00 0.00 52 1011.8
20260504184407 20 189 0.0 1.6 0.00 0.00 0.00 51 1011.8
20260504184358 20 189 0.0 6.4 0.00 0.00 0.00 52 1012.0
20260504184342 20 194 0.0 6.4 0.00 0.00 0.00 52 1011.9
20260504184320 20 204 6.4 6.4 0.00 0.00 0.00 50 1011.8
20260504184053 20 185 0.0 1.6 0.00 0.00 0.00 51 1011.8
20260504184037 20 190 0.0 1.6 0.00 0.00 0.00 51 1011.9
20260504184022 20 194 0.0 1.6 0.00 0.00 0.00 51 1011.9
20260504184006 20 194 0.0 1.6 0.00 0.00 0.00 52 1011.9
20260504183948 20 189 0.0 1.6 0.00 0.00 0.00 51 1011.8
20260504183722 20 194 0.0 1.6 0.00 0.00 0.00 52 1012.0
20260504183705 20 196 0.0 1.6 0.00 0.00 0.00 52 1011.8
20260504183202 20 191 0.0 0.0 0.00 0.00 0.00 51 1011.8
20260504183144 20 191 0.0 0.0 0.00 0.00 0.00 51 1012.0
20260504182824 20 191 0.0 0.0 0.00 0.00 0.00 51 1012.0
20260504182723 20 191 0.0 0.0 0.00 0.00 0.00 51 1011.9
20260504182624 20 191 0.0 0.0 0.00 0.00 0.00 51 1012.1
20260504182524 20 191 0.0 0.0 0.00 0.00 0.00 52 1011.8
20260504182501 20 191 0.0 0.0 0.00 0.00 0.00 52 1011.7
20260504182445 20 191 0.0 0.0 0.00 0.00 0.00 51 1012.0
20260504182428 20 191 0.0 0.0 0.00 0.00 0.00 51 1012.0
20260504182406 20 191 0.0 0.0 0.00 0.00 0.00 51 1011.9
20260504182347 20 191 0.0 0.0 0.00 0.00 0.00 51 1011.7
20260504182330 20 191 0.0 0.0 0.00 0.00 0.00 51 1011.8
20260504181624 20 193 0.0 1.6 0.00 0.00 0.00 51 1011.7
20260504181523 20 186 0.0 1.6 0.00 0.00 0.00 51 1012.0
20260504181423 20 188 0.0 1.6 0.00 0.00 0.00 51 1011.6
20260504181324 21 191 0.0 1.6 0.00 0.00 0.00 50 1011.8
20260504181252 21 181 0.0 1.6 0.00 0.00 0.00 51 1011.8
20260504181228 21 190 0.0 1.6 0.00 0.00 0.00 50 1011.7
20260504181211 21 190 0.0 1.6 0.00 0.00 0.00 51 1011.7
20260504181155 21 191 0.0 1.6 0.00 0.00 0.00 50 1012.0
20260504181140 21 191 0.0 1.6 0.00 0.00 0.00 50 1011.6
20260504181125 21 192 0.0 1.6 0.00 0.00 0.00 50 1011.9
20260504180857 21 191 0.0 0.0 0.00 0.00 0.00 50 1011.6
20260504180842 21 192 0.0 0.0 0.00 0.00 0.00 50 1011.8
20260504180346 21 219 0.0 0.0 0.00 0.00 0.00 50 1012.1
20260504180119 21 192 0.0 0.0 0.00 0.00 0.00 50 1011.8
20260504180018 21 191 0.0 0.0 0.00 0.00 0.00 50 1011.7
20260504175917 21 188 0.0 0.0 0.00 0.00 0.00 50 1011.8
20260504175859 21 190 0.0 0.0 0.00 0.00 0.00 50 1011.8
20260504175843 21 194 0.0 0.0 0.00 0.00 0.00 50 1011.8
20260504175617 21 198 0.0 0.0 0.00 0.00 0.00 50 1011.8
20260504175517 21 192 0.0 0.0 0.00 0.00 0.00 49 1011.9
20260504175418 21 193 0.0 0.0 0.00 0.00 0.00 49 1012.1
20260504175318 21 188 0.0 0.0 0.00 0.00 0.00 49 1012.0
20260504175219 21 188 0.0 0.0 0.00 0.00 0.00 49 1011.9
20260504175117 21 191 0.0 0.0 0.00 0.00 0.00 49 1011.8
20260504175018 21 191 0.0 0.0 0.00 0.00 0.00 49 1011.9
20260504174953 21 190 0.0 0.0 0.00 0.00 0.00 49 1011.9
20260504174936 21 189 0.0 0.0 0.00 0.00 0.00 49 1011.7
20260504174921 21 187 0.0 0.0 0.00 0.00 0.00 49 1011.6
20260504174858 21 193 0.0 0.0 0.00 0.00 0.00 48 1012.0
20260504174841 21 190 0.0 0.0 0.00 0.00 0.00 48 1011.9
20260504174345 21 186 0.0 3.2 0.00 0.00 0.00 48 1011.8
20260504174118 21 188 0.0 3.2 0.00 0.00 0.00 48 1011.8
20260504174017 21 188 0.0 3.2 0.00 0.00 0.00 48 1011.8
20260504173917 21 186 0.0 3.2 0.00 0.00 0.00 48 1011.9
20260504173816 22 186 0.0 3.2 0.00 0.00 0.00 48 1011.8
20260504173717 22 189 0.0 3.2 0.00 0.00 0.00 49 1011.8
20260504173618 22 189 0.0 3.2 0.00 0.00 0.00 48 1011.6
20260504173541 22 191 0.0 3.2 0.00 0.00 0.00 48 1011.8
20260504173524 22 204 0.0 1.6 0.00 0.00 0.00 47 1011.8
20260504173206 22 192 0.0 1.6 0.00 0.00 0.00 47 1011.9
20260504173107 22 188 0.0 1.6 0.00 0.00 0.00 48 1011.8
20260504173058 22 192 0.0 1.6 0.00 0.00 0.00 47 1011.6
20260504172920 22 196 0.0 1.6 0.00 0.00 0.00 47 1011.7
20260504172811 22 188 0.0 3.2 0.00 0.00 0.00 47 1011.4
20260504172706 22 191 0.0 3.2 0.00 0.00 0.00 47 1012.0
20260504172606 22 188 0.0 3.2 0.00 0.00 0.00 47 1011.8
20260504172541 22 182 0.0 3.2 0.00 0.00 0.00 47 1011.6
20260504172533 22 188 0.0 3.2 0.00 0.00 0.00 47 1011.7
20260504172516 22 179 0.0 3.2 0.00 0.00 0.00 47 1011.6
20260504172501 22 194 0.0 3.2 0.00 0.00 0.00 47 1011.6
20260504172445 22 188 0.0 3.2 0.00 0.00 0.00 47 1011.6
20260504172420 22 191 0.0 3.2 0.00 0.00 0.00 47 1011.6
20260504171935 22 190 0.0 3.2 0.00 0.00 0.00 47 1011.7
20260504171918 22 191 0.0 3.2 0.00 0.00 0.00 47 1011.6
20260504171903 22 176 0.0 3.2 0.00 0.00 0.00 47 1011.7
20260504171844 22 182 0.0 3.2 0.00 0.00 0.00 47 1011.6
20260504171619 22 188 0.0 3.2 0.00 0.00 0.00 47 1011.7
20260504171259 22 196 0.0 3.2 0.00 0.00 0.00 46 1011.6
20260504171158 22 173 0.0 3.2 0.00 0.00 0.00 46 1011.6
20260504171059 22 182 0.0 3.2 0.00 0.00 0.00 46 1011.6
20260504171036 22 175 1.6 3.2 0.00 0.00 0.00 46 1011.7
20260504171020 22 192 0.0 1.6 0.00 0.00 0.00 46 1011.7
20260504170654 22 188 0.0 1.6 0.00 0.00 0.00 46 1011.5
20260504170607 22 183 0.0 1.6 0.00 0.00 0.00 46 1011.5
20260504170522 23 187 0.0 6.4 0.00 0.00 0.00 46 1011.8
20260504170516 23 174 0.0 0.0 0.00 0.00 0.00 45 1011.5
20260504170510 22 184 0.0 3.2 0.00 0.00 0.00 46 1011.7
20260504170453 22 227 0.0 3.2 0.00 0.00 0.00 46 1011.4
20260504170436 22 185 0.0 3.2 0.00 0.00 0.00 46 1011.6
20260504170421 23 182 0.0 6.4 0.00 0.00 0.00 46 1011.5
20260504170402 23 187 0.0 6.4 0.00 0.00 0.00 46 1011.8
20260504170137 23 191 0.0 6.4 0.00 0.00 0.00 46 1011.5
20260504170121 23 176 0.0 6.4 0.00 0.00 0.00 46 1011.5
20260504170104 23 194 0.0 6.4 0.00 0.00 0.00 46 1011.6
20260504151146 24 238 1.6 11.3 0.00 0.00 0.00 42 1011.9
20260504150901 24 174 1.6 17.7 0.00 0.00 0.00 43 1012.1
20260504150846 24 202 1.6 17.7 0.00 0.00 0.00 42 1012.1
20260504150610 24 188 0.0 17.7 0.00 0.00 0.00 43 1011.7
20260504150524 24 184 0.0 17.7 0.00 0.00 0.00 42 1011.9
20260504150425 24 203 0.0 17.7 0.00 0.00 0.00 42 1011.9
20260504150327 24 191 1.6 17.7 0.00 0.00 0.00 42 1011.9
20260504150221 24 194 4.8 17.7 0.00 0.00 0.00 42 1012.1
20260504150121 24 132 0.0 17.7 0.00 0.00 0.00 43 1011.9
20260504150107 24 201 1.6 17.7 0.00 0.00 0.00 42 1011.9
20260504141324 25 223 0.0 6.4 0.00 0.00 0.00 42 1012.3
20260504141308 25 182 0.0 6.4 0.00 0.00 0.00 42 1012.3
20260504141301 25 194 0.0 6.4 0.00 0.00 0.00 42 1012.3
20260504141026 25 224 1.6 9.7 0.00 0.00 0.00 42 1012.3
20260504140749 25 177 0.0 9.7 0.00 0.00 0.00 43 1012.3
20260504140510 25 181 0.0 9.7 0.00 0.00 0.00 43 1012.2
20260504140409 25 75 1.6 9.7 0.00 0.00 0.00 44 1012.4
20260504140307 25 163 0.0 9.7 0.00 0.00 0.00 43 1012.4
20260504140202 25 179 0.0 9.7 0.00 0.00 0.00 43 1012.4
20260504130821 25 188 0.0 6.4 0.00 0.00 0.00 43 1012.7
20260504130804 25 186 0.0 6.4 0.00 0.00 0.00 43 1012.7
20260504130452 25 192 0.0 6.4 0.00 0.00 0.00 43 1012.8
20260504130440 25 198 3.2 6.4 0.00 0.00 0.00 43 1012.8
20260504130344 25 168 1.6 6.4 0.00 0.00 0.00 44 1012.8
20260504130244 25 199 3.2 6.4 0.00 0.00 0.00 43 1012.8
20260504130135 25 194 0.0 6.4 0.00 0.00 0.00 44 1013.0
20260504120254 23 145 1.6 16.1 0.00 0.00 0.00 43 1013.1
20260504120246 23 206 0.0 16.1 0.00 0.00 0.00 42 1013.1
20260504120230 23 196 0.0 16.1 0.00 0.00 0.00 42 1013.3
20260504120215 23 229 3.2 16.1 0.00 0.00 0.00 42 1013.1
20260504120159 23 240 8.0 16.1 0.00 0.00 0.00 42 1013.3
20260504110532 24 236 6.4 22.5 0.00 0.00 0.00 41 1013.7
20260504110421 24 215 0.0 24.1 0.00 0.00 0.00 40 1013.5
20260504110321 24 255 8.0 24.1 0.00 0.00 0.00 40 1013.5
20260504110240 24 195 0.0 24.1 0.00 0.00 0.00 40 1013.5
20260504110215 24 223 8.0 24.1 0.00 0.00 0.00 40 1013.7
20260504100510 25 113 0.0 20.9 0.00 0.00 0.00 39 1014.5
20260504081943 21 206 3.2 20.9 0.00 0.00 0.00 42 1015.0
20260504081842 21 202 12.9 20.9 0.00 0.00 0.00 42 1015.3
20260504081817 21 170 4.8 20.9 0.00 0.00 0.00 42 1015.0
20260504081802 21 203 4.8 20.9 0.00 0.00 0.00 43 1015.0
20260504081514 21 235 3.2 20.9 0.00 0.00 0.00 42 1015.0
20260504081442 21 239 6.4 20.9 0.00 0.00 0.00 43 1015.0
20260504081342 21 230 9.7 16.1 0.00 0.00 0.00 43 1015.3
20260504081243 21 204 11.3 24.1 0.00 0.00 0.00 44 1015.2
20260504081143 21 169 0.0 24.1 0.00 0.00 0.00 43 1014.8
20260504081128 21 196 8.0 24.1 0.00 0.00 0.00 42 1015.0
20260504081114 21 225 4.8 24.1 0.00 0.00 0.00 42 1015.0
20260504081105 21 183 3.2 27.4 0.00 0.00 0.00 42 1015.0
20260504080742 22 210 9.7 27.4 0.00 0.00 0.00 41 1015.2
20260504080656 22 69 6.4 27.4 0.00 0.00 0.00 41 1015.2
20260504080640 21 185 1.6 27.4 0.00 0.00 0.00 42 1015.1
20260504080627 21 201 0.0 27.4 0.00 0.00 0.00 42 1015.1
20260504080618 21 201 0.0 27.4 0.00 0.00 0.00 43 1015.1
20260504080351 21 235 6.4 27.4 0.00 0.00 0.00 43 1015.4
20260504080334 21 247 8.0 27.4 0.00 0.00 0.00 43 1015.1
20260504080319 21 229 3.2 27.4 0.00 0.00 0.00 43 1015.0
20260504080303 21 194 11.3 27.4 0.00 0.00 0.00 42 1015.0
20260504080250 21 217 19.3 27.4 0.00 0.00 0.00 42 1015.0
20260504080241 21 177 1.6 12.9 0.00 0.00 0.00 42 1015.0
20260504070400 21 225 4.8 11.3 0.00 0.00 0.00 43 1015.0
20260504070344 21 163 1.6 14.5 0.00 0.00 0.00 43 1015.0
20260504070110 21 213 0.0 14.5 0.00 0.00 0.00 44 1014.8
20260504050532 16 214 6.4 16.1 0.00 0.00 0.00 51 1015.2
20260504050516 16 230 0.0 16.1 0.00 0.00 0.00 51 1015.1
20260504050239 16 219 4.8 11.3 0.00 0.00 0.00 51 1015.0
20260504050013 16 237 9.7 11.3 0.00 0.00 0.00 51 1015.2
20260504045957 16 194 0.0 6.4 0.00 0.00 0.00 52 1015.2
20260504045513 16 204 1.6 6.4 0.00 0.00 0.00 51 1015.2
20260504045458 16 192 0.0 6.4 0.00 0.00 0.00 50 1015.1
20260504045441 16 203 4.8 6.4 0.00 0.00 0.00 50 1014.9
20260504045130 17 220 3.2 6.4 0.00 0.00 0.00 49 1014.9
20260504045030 17 195 0.0 4.8 0.00 0.00 0.00 48 1015.1
20260504044929 17 228 1.6 6.4 0.00 0.00 0.00 48 1015.1
20260504044907 17 172 0.0 6.4 0.00 0.00 0.00 49 1015.1
20260504044845 16 197 0.0 6.4 0.00 0.00 0.00 49 1014.9
20260504044525 16 198 0.0 6.4 0.00 0.00 0.00 49 1015.0
20260504044425 16 215 1.6 9.7 0.00 0.00 0.00 50 1015.1
20260504044324 16 223 3.2 9.7 0.00 0.00 0.00 50 1015.1
20260504044225 16 201 0.0 9.7 0.00 0.00 0.00 51 1014.9
20260504044124 16 190 0.0 9.7 0.00 0.00 0.00 51 1015.0
20260504044024 15 190 0.0 9.7 0.00 0.00 0.00 52 1015.1
20260504044003 15 185 0.0 11.3 0.00 0.00 0.00 52 1014.9
20260504043954 16 208 6.4 9.7 0.00 0.00 0.00 51 1015.0
20260504043939 15 179 0.0 9.7 0.00 0.00 0.00 52 1015.0
20260504043917 15 208 0.0 9.7 0.00 0.00 0.00 52 1015.0
20260504043652 15 213 3.2 9.7 0.00 0.00 0.00 52 1014.9
20260504043636 15 221 3.2 9.7 0.00 0.00 0.00 52 1014.8
20260504043621 15 204 1.6 6.4 0.00 0.00 0.00 52 1015.0
20260504043605 16 232 6.4 6.4 0.00 0.00 0.00 51 1015.1
20260504043543 16 204 0.0 4.8 0.00 0.00 0.00 51 1014.9
20260504043524 15 195 0.0 4.8 0.00 0.00 0.00 52 1015.0
20260504043509 15 190 0.0 6.4 0.00 0.00 0.00 52 1014.9
20260504043452 15 207 4.8 6.4 0.00 0.00 0.00 52 1015.1
20260504043215 15 185 0.0 11.3 0.00 0.00 0.00 52 1014.9
20260504042424 14 207 0.0 12.9 0.00 0.00 0.00 53 1015.4
20260504042408 14 203 0.0 12.9 0.00 0.00 0.00 54 1014.9
20260504042346 14 176 0.0 12.9 0.00 0.00 0.00 54 1015.1
20260504042024 13 203 0.0 14.5 0.00 0.00 0.00 55 1015.0
20260504041925 13 208 1.6 14.5 0.00 0.00 0.00 55 1014.8
20260504041824 13 227 4.8 14.5 0.00 0.00 0.00 55 1014.9
20260504041725 13 193 0.0 14.5 0.00 0.00 0.00 56 1014.9
20260504041624 13 231 9.7 14.5 0.00 0.00 0.00 56 1014.9
20260504041524 13 213 3.2 14.5 0.00 0.00 0.00 56 1015.0
20260504041423 13 210 3.2 14.5 0.00 0.00 0.00 57 1014.8
20260504041325 13 222 4.8 14.5 0.00 0.00 0.00 57 1014.9
20260504041225 13 240 9.7 14.5 0.00 0.00 0.00 57 1014.9
20260504041126 13 190 0.0 4.8 0.00 0.00 0.00 58 1014.9
20260504041102 12 206 1.6 4.8 0.00 0.00 0.00 58 1015.0
20260504041046 12 205 1.6 4.8 0.00 0.00 0.00 58 1015.0
20260504040725 12 208 3.2 4.8 0.00 0.00 0.00 58 1014.8
20260504040624 12 204 0.0 4.8 0.00 0.00 0.00 58 1014.8
20260504040524 12 200 0.0 4.8 0.00 0.00 0.00 58 1014.8
20260504040508 12 206 1.6 4.8 0.00 0.00 0.00 58 1014.8
20260504040453 12 201 0.0 4.8 0.00 0.00 0.00 58 1015.0
20260504040226 12 204 0.0 4.8 0.00 0.00 0.00 58 1014.6
20260504040124 12 226 3.2 4.8 0.00 0.00 0.00 58 1014.9
20260504040024 12 192 0.0 4.8 0.00 0.00 0.00 58 1014.8
20260504035924 12 201 0.0 4.8 0.00 0.00 0.00 58 1014.6
20260504035824 12 209 0.0 4.8 0.00 0.00 0.00 58 1014.7
20260504035724 12 206 1.6 4.8 0.00 0.00 0.00 58 1014.9
20260504035625 12 211 3.2 4.8 0.00 0.00 0.00 58 1015.0
20260504035523 12 212 1.6 3.2 0.00 0.00 0.00 59 1015.0
20260504035424 12 209 1.6 6.4 0.00 0.00 0.00 58 1014.9
20260504035323 12 206 0.0 6.4 0.00 0.00 0.00 59 1014.8
20260504035224 12 205 0.0 6.4 0.00 0.00 0.00 59 1014.7
20260504035119 12 219 3.2 6.4 0.00 0.00 0.00 59 1014.6
20260504035019 12 218 1.6 6.4 0.00 0.00 0.00 59 1014.7
20260504034918 12 211 1.6 6.4 0.00 0.00 0.00 59 1014.8
20260504034818 12 213 1.6 6.4 0.00 0.00 0.00 59 1014.8
20260504034752 12 219 1.6 6.4 0.00 0.00 0.00 59 1014.8
20260504034738 12 208 1.6 6.4 0.00 0.00 0.00 59 1014.9
20260504034419 12 204 0.0 3.2 0.00 0.00 0.00 61 1014.6
20260504034348 12 206 0.0 1.6 0.00 0.00 0.00 60 1014.8
20260504034326 12 206 0.0 1.6 0.00 0.00 0.00 61 1014.8
20260504034308 12 211 0.0 1.6 0.00 0.00 0.00 60 1014.9
20260504034032 12 197 0.0 1.6 0.00 0.00 0.00 60 1014.8
20260504034015 12 197 0.0 1.6 0.00 0.00 0.00 60 1014.6
20260504033953 12 196 0.0 3.2 0.00 0.00 0.00 61 1014.6
20260504033413 12 197 0.0 3.2 0.00 0.00 0.00 60 1014.8
20260504033313 12 197 0.0 4.8 0.00 0.00 0.00 60 1014.8
20260504033215 12 198 0.0 9.7 0.00 0.00 0.00 60 1014.9
20260504033148 12 199 0.0 9.7 0.00 0.00 0.00 59 1015.0
20260504033132 12 205 0.0 9.7 0.00 0.00 0.00 59 1014.7
20260504032811 12 212 1.6 9.7 0.00 0.00 0.00 58 1014.8
20260504032712 12 205 0.0 9.7 0.00 0.00 0.00 58 1014.7
20260504032611 12 197 0.0 9.7 0.00 0.00 0.00 57 1014.8
20260504032511 12 212 3.2 9.7 0.00 0.00 0.00 57 1014.7
20260504032444 12 214 3.2 9.7 0.00 0.00 0.00 56 1014.8
20260504032427 12 213 4.8 9.7 0.00 0.00 0.00 56 1014.6